Time,TemperatureF,DewpointF,PressureIn,WindDirection,WindDirectionDegrees,WindSpeedMPH,WindSpeedGustMPH,Humidity,HourlyPrecipIn,Conditions,Clouds,dailyrainin,SolarRadiationWatts/m^2,SoftwareType,DateUTC
2013-05-13 00:00:00,54.8,48.7,29.79,WNW,303,4.3,14.0,80,0.00,BKN,,0.00,0.0,WeatherDisplay:10.37,2013-05-12 22:00:00,
2013-05-13 00:05:00,54.7,48.3,29.78,North,360,5.4,13.8,79,0.00,BKN,,0.00,0.0,WeatherDisplay:10.37,2013-05-12 22:05:00,
2013-05-13 00:10:00,54.6,48.2,29.79,NE,51,3.2,11.5,79,0.00,BKN,,0.00,0.0,WeatherDisplay:10.37,2013-05-12 22:10:00,
2013-05-13 00:15:00,54.6,48.6,29.78,North,9,5.4,12.7,80,0.00,BKN,,0.00,0.0,WeatherDisplay:10.37,2013-05-12 22:15:00,
2013-05-13 00:20:00,54.6,48.6,29.79,NW,322,7.4,13.0,80,0.00,BKN,,0.00,0.0,WeatherDisplay:10.37,2013-05-12 22:20:00,
2013-05-13 00:25:00,54.5,48.5,29.79,NNW,327,6.8,11.0,80,0.00,BKN,,0.00,0.0,WeatherDisplay:10.37,2013-05-12 22:25:00,
2013-05-13 00:30:00,54.5,48.5,29.79,NNW,340,8.1,15.0,80,0.00,BKN,,0.00,0.0,WeatherDisplay:10.37,2013-05-12 22:30:00,
2013-05-13 00:35:00,54.5,48.5,29.79,NW,313,6.8,15.0,80,0.00,BKN,,0.00,0.0,WeatherDisplay:10.37,2013-05-12 22:35:00,
2013-05-13 00:40:00,54.5,48.5,29.80,NW,318,5.2,16.0,80,0.00,BKN,,0.00,0.0,WeatherDisplay:10.37,2013-05-12 22:40:00,
2013-05-13 00:45:00,54.4,48.4,29.79,North,355,5.5,11.5,80,0.00,BKN,,0.00,0.0,WeatherDisplay:10.37,2013-05-12 22:45:00,
2013-05-13 00:50:00,54.3,48.3,29.80,NNW,333,7.9,15.0,80,0.00,BKN,,0.00,0.0,WeatherDisplay:10.37,2013-05-12 22:50:00,
2013-05-13 00:55:00,54.3,48.3,29.80,West,276,4.7,15.0,80,0.00,BKN,,0.00,0.0,WeatherDisplay:10.37,2013-05-12 22:55:00,
2013-05-13 01:00:00,54.3,48.3,29.80,WNW,290,4.8,16.1,80,0.00,BKN,,0.00,0.0,WeatherDisplay:10.37,2013-05-12 23:00:00,
2013-05-13 01:05:00,54.3,48.3,29.80,NW,305,8.7,14.0,80,0.00,BKN,,0.00,0.0,WeatherDisplay:10.37,2013-05-12 23:05:00,
2013-05-13 01:10:00,54.2,47.8,29.80,NNW,333,5.1,15.0,79,0.00,BKN,,0.00,0.0,WeatherDisplay:10.37,2013-05-12 23:10:00,
2013-05-13 01:15:00,54.2,47.8,29.80,WNW,300,4.6,12.7,79,0.00,BKN,,0.00,0.0,WeatherDisplay:10.37,2013-05-12 23:15:00,
2013-05-13 01:20:00,54.2,47.8,29.80,NW,324,5.1,11.5,79,0.00,BKN,,0.00,0.0,WeatherDisplay:10.37,2013-05-12 23:20:00,
2013-05-13 01:25:00,54.3,47.9,29.80,NNW,327,7.4,14.0,79,0.00,BKN,,0.00,0.0,WeatherDisplay:10.37,2013-05-12 23:25:00,
2013-05-13 01:30:00,54.2,47.8,29.80,North,351,4.9,12.0,79,0.00,BKN,,0.00,0.0,WeatherDisplay:10.37,2013-05-12 23:30:00,
2013-05-13 01:35:00,54.2,47.8,29.80,NNW,346,4.9,12.7,79,0.00,BKN,,0.00,0.0,WeatherDisplay:10.37,2013-05-12 23:35:00,
2013-05-13 01:40:00,54.2,47.8,29.80,NNW,333,9.6,14.0,79,0.00,BKN,,0.00,0.0,WeatherDisplay:10.37,2013-05-12 23:40:00,
2013-05-13 01:45:00,54.2,47.8,29.80,NW,323,6.1,12.0,79,0.00,BKN,,0.00,0.0,WeatherDisplay:10.37,2013-05-12 23:45:00,
2013-05-13 01:50:00,54.2,47.8,29.80,NNW,331,3.5,11.0,79,0.00,BKN,,0.00,0.0,WeatherDisplay:10.37,2013-05-12 23:50:00,
2013-05-13 01:55:00,54.2,47.8,29.80,WNW,302,3.6,10.4,79,0.00,BKN,,0.00,0.0,WeatherDisplay:10.37,2013-05-12 23:55:00,
2013-05-13 02:00:00,54.2,47.8,29.80,NW,304,4.1,8.1,79,0.00,BKN,,0.00,0.0,WeatherDisplay:10.37,2013-05-13 00:00:00,
2013-05-13 02:05:00,54.2,47.8,29.80,NNW,340,2.1,11.5,79,0.00,BKN,,0.00,0.0,WeatherDisplay:10.37,2013-05-13 00:05:00,
2013-05-13 02:10:00,54.2,47.8,29.80,NW,311,2.5,10.4,79,0.00,BKN,,0.00,0.0,WeatherDisplay:10.37,2013-05-13 00:10:00,
2013-05-13 02:15:00,54.2,48.2,29.80,NW,315,3.7,9.2,80,0.00,BKN,,0.00,0.0,WeatherDisplay:10.37,2013-05-13 00:15:00,
2013-05-13 02:20:00,54.2,48.2,29.80,NNW,339,6.3,11.5,80,0.00,BKN,,0.00,0.0,WeatherDisplay:10.37,2013-05-13 00:20:00,
2013-05-13 02:25:00,54.2,48.2,29.79,West,259,2.4,11.5,80,0.00,BKN,,0.00,0.0,WeatherDisplay:10.37,2013-05-13 00:25:00,
2013-05-13 02:30:00,54.2,48.2,29.79,West,279,4.8,11.5,80,0.00,BKN,,0.00,0.0,WeatherDisplay:10.37,2013-05-13 00:30:00,
2013-05-13 02:35:00,54.1,48.1,29.79,NW,317,2.8,10.4,80,0.00,BKN,,0.00,0.0,WeatherDisplay:10.37,2013-05-13 00:35:00,
2013-05-13 02:40:00,54.1,48.1,29.79,North,360,3.7,8.1,80,0.00,BKN,,0.00,0.0,WeatherDisplay:10.37,2013-05-13 00:40:00,
2013-05-13 02:45:00,54.1,48.1,29.79,NW,324,2.0,9.2,80,0.00,BKN,,0.00,0.0,WeatherDisplay:10.37,2013-05-13 00:45:00,
2013-05-13 02:50:00,54.1,48.1,29.79,WNW,286,8.1,11.5,80,0.00,BKN,,0.00,0.0,WeatherDisplay:10.37,2013-05-13 00:50:00,
2013-05-13 02:55:00,54.1,48.1,29.79,NW,306,7.4,17.3,80,0.00,BKN,,0.00,0.0,WeatherDisplay:10.37,2013-05-13 00:55:00,
2013-05-13 03:00:00,54.1,48.1,29.79,NW,325,10.1,15.0,80,0.00,BKN,,0.00,0.0,WeatherDisplay:10.37,2013-05-13 01:00:00,
2013-05-13 03:05:00,54.0,48.0,29.79,West,273,3.8,13.8,80,0.00,BKN,,0.00,0.0,WeatherDisplay:10.37,2013-05-13 01:05:00,
2013-05-13 03:10:00,54.0,48.0,29.80,NNW,331,7.5,14.0,80,0.00,BKN,,0.00,0.0,WeatherDisplay:10.37,2013-05-13 01:10:00,
2013-05-13 03:15:00,54.0,48.3,29.80,NNW,327,9.4,17.3,81,0.00,BKN,,0.00,0.0,WeatherDisplay:10.37,2013-05-13 01:15:00,
2013-05-13 03:20:00,53.9,48.2,29.80,NW,310,8.1,18.0,81,0.00,BKN,,0.00,0.0,WeatherDisplay:10.37,2013-05-13 01:20:00,
2013-05-13 03:25:00,53.8,48.4,29.80,NNW,344,5.0,12.7,82,0.00,BKN,,0.00,0.0,WeatherDisplay:10.37,2013-05-13 01:25:00,
2013-05-13 03:30:00,53.6,48.6,29.80,WNW,288,7.2,15.0,83,0.00,BKN,,0.00,0.0,WeatherDisplay:10.37,2013-05-13 01:30:00,
2013-05-13 03:35:00,53.4,48.4,29.80,NW,323,3.7,11.5,83,0.00,BKN,,0.00,0.0,WeatherDisplay:10.37,2013-05-13 01:35:00,
2013-05-13 03:40:00,53.2,48.5,29.80,North,351,6.1,11.0,84,0.00,BKN,,0.00,0.0,WeatherDisplay:10.37,2013-05-13 01:40:00,
2013-05-13 03:45:00,53.0,48.6,29.80,West,270,6.0,14.0,85,0.00,BKN,,0.00,0.0,WeatherDisplay:10.37,2013-05-13 01:45:00,
2013-05-13 03:50:00,52.7,48.6,29.80,East,85,7.0,11.5,86,0.00,BKN,,0.00,0.0,WeatherDisplay:10.37,2013-05-13 01:50:00,
2013-05-13 03:55:00,52.4,48.3,29.80,NNW,343,4.1,9.2,86,0.01,RA,,0.01,0.0,WeatherDisplay:10.37,2013-05-13 01:55:00,
2013-05-13 04:00:00,52.3,48.5,29.80,WNW,293,6.4,10.4,87,0.01,RA,,0.01,0.0,WeatherDisplay:10.37,2013-05-13 02:00:00,
2013-05-13 04:05:00,52.1,48.3,29.80,North,360,4.3,11.5,87,0.01,BKN,,0.01,0.0,WeatherDisplay:10.37,2013-05-13 02:05:00,
2013-05-13 04:10:00,52.0,48.3,29.80,NW,317,4.1,10.4,87,0.01,BKN,,0.01,0.0,WeatherDisplay:10.37,2013-05-13 02:10:00,
2013-05-13 04:15:00,51.9,48.2,29.81,North,360,1.4,6.9,87,0.01,BKN,,0.01,0.0,WeatherDisplay:10.37,2013-05-13 02:15:00,
2013-05-13 04:20:00,51.9,48.5,29.81,NNW,328,3.5,8.1,88,0.01,BKN,,0.01,0.0,WeatherDisplay:10.37,2013-05-13 02:20:00,
2013-05-13 04:25:00,51.8,48.4,29.81,NW,314,1.8,10.4,88,0.01,BKN,,0.01,0.0,WeatherDisplay:10.37,2013-05-13 02:25:00,
2013-05-13 04:30:00,51.8,48.4,29.81,North,355,5.9,11.5,88,0.01,BKN,,0.01,0.0,WeatherDisplay:10.37,2013-05-13 02:30:00,
2013-05-13 04:35:00,51.8,48.1,29.81,North,10,0.8,9.2,87,0.01,BKN,,0.01,0.0,WeatherDisplay:10.37,2013-05-13 02:35:00,
2013-05-13 04:40:00,51.9,48.2,29.81,NNW,329,4.8,9.2,87,0.01,BKN,,0.01,0.0,WeatherDisplay:10.37,2013-05-13 02:40:00,
2013-05-13 04:45:00,51.9,48.2,29.81,North,10,4.8,10.4,87,0.01,BKN,,0.01,0.0,WeatherDisplay:10.37,2013-05-13 02:45:00,
2013-05-13 04:50:00,52.0,48.3,29.81,NNW,340,3.2,11.5,87,0.01,BKN,,0.01,0.0,WeatherDisplay:10.37,2013-05-13 02:50:00,
2013-05-13 04:55:00,52.1,48.3,29.81,NNW,331,4.5,7.0,87,0.00,BKN,,0.01,0.0,WeatherDisplay:10.37,2013-05-13 02:55:00,
2013-05-13 05:00:00,52.2,48.4,29.81,NNW,334,3.0,8.1,87,0.00,BKN,,0.01,0.0,WeatherDisplay:10.37,2013-05-13 03:00:00,
2013-05-13 05:05:00,52.2,48.4,29.81,North,360,2.3,10.4,87,0.00,BKN,,0.01,0.0,WeatherDisplay:10.37,2013-05-13 03:05:00,
2013-05-13 05:10:00,52.2,48.1,29.82,West,274,6.1,12.0,86,0.00,BKN,,0.01,0.0,WeatherDisplay:10.37,2013-05-13 03:10:00,
2013-05-13 05:15:00,52.3,48.2,29.82,NW,314,4.2,9.0,86,0.00,BKN,,0.01,0.0,WeatherDisplay:10.37,2013-05-13 03:15:00,
2013-05-13 05:20:00,52.3,48.2,29.82,NNW,328,5.2,11.5,86,0.00,BKN,,0.01,0.0,WeatherDisplay:10.37,2013-05-13 03:20:00,
2013-05-13 05:25:00,52.4,48.3,29.82,NW,321,3.1,8.1,86,0.00,BKN,,0.01,0.0,WeatherDisplay:10.37,2013-05-13 03:25:00,
2013-05-13 05:30:00,52.4,48.3,29.82,West,276,3.3,6.0,86,0.00,BKN,,0.01,0.0,WeatherDisplay:10.37,2013-05-13 03:30:00,
2013-05-13 05:35:00,52.4,48.0,29.82,NNW,333,3.5,8.1,85,0.00,BKN,,0.01,5.0,WeatherDisplay:10.37,2013-05-13 03:35:00,
2013-05-13 05:40:00,52.5,48.1,29.82,North,355,3.9,10.4,85,0.00,BKN,,0.01,7.0,WeatherDisplay:10.37,2013-05-13 03:40:00,
2013-05-13 05:45:00,52.5,48.1,29.82,North,11,4.6,9.2,85,0.00,BKN,,0.01,9.0,WeatherDisplay:10.37,2013-05-13 03:45:00,
2013-05-13 05:50:00,52.5,48.1,29.82,NNW,343,3.1,8.0,85,0.00,BKN,,0.01,12.0,WeatherDisplay:10.37,2013-05-13 03:50:00,
2013-05-13 05:55:00,52.6,48.2,29.83,WNW,300,4.0,10.4,85,0.00,BKN,,0.01,18.0,WeatherDisplay:10.37,2013-05-13 03:55:00,
2013-05-13 06:00:00,52.6,48.2,29.83,NW,324,2.1,10.4,85,0.00,BKN,,0.01,19.0,WeatherDisplay:10.37,2013-05-13 04:00:00,
2013-05-13 06:01:00,52.6,48.2,29.83,NW,321,4.5,8.1,85,0.00,BKN,,0.01,18.0,WeatherDisplay:10.37,2013-05-13 04:01:00,
2013-05-13 06:03:00,52.6,48.2,29.83,NNW,338,5.1,11.5,85,0.00,BKN,,0.01,18.0,WeatherDisplay:10.37,2013-05-13 04:03:00,
2013-05-13 06:04:00,52.7,48.3,29.82,WNW,302,6.3,13.0,85,0.00,BKN,,0.01,18.0,WeatherDisplay:10.37,2013-05-13 04:04:00,
2013-05-13 06:05:00,52.7,48.3,29.82,NW,322,7.0,13.0,85,0.00,BKN,,0.01,18.0,WeatherDisplay:10.37,2013-05-13 04:05:00,
2013-05-13 06:10:00,52.7,48.3,29.83,NNW,346,3.4,11.5,85,0.00,BKN,,0.01,18.0,WeatherDisplay:10.37,2013-05-13 04:10:00,
2013-05-13 06:15:00,52.7,48.3,29.83,NW,319,3.5,9.2,85,0.00,BKN,,0.01,18.0,WeatherDisplay:10.37,2013-05-13 04:15:00,
2013-05-13 06:20:00,52.8,48.1,29.83,NNW,332,6.0,10.4,84,0.00,BKN,,0.01,18.0,WeatherDisplay:10.37,2013-05-13 04:20:00,
2013-05-13 06:25:00,52.8,48.1,29.83,WNW,284,4.4,11.5,84,0.00,BKN,,0.01,23.0,WeatherDisplay:10.37,2013-05-13 04:25:00,
2013-05-13 06:30:00,52.8,48.1,29.83,NNW,334,5.6,9.2,84,0.00,BKN,,0.01,23.0,WeatherDisplay:10.37,2013-05-13 04:30:00,
2013-05-13 06:35:00,52.9,48.2,29.83,NW,306,1.9,12.7,84,0.00,BKN,,0.01,35.0,WeatherDisplay:10.37,2013-05-13 04:35:00,
2013-05-13 06:40:00,52.9,48.2,29.83,North,355,3.4,9.2,84,0.00,BKN,,0.01,46.0,WeatherDisplay:10.37,2013-05-13 04:40:00,
2013-05-13 06:45:00,52.9,48.2,29.83,NNW,345,5.1,10.0,84,0.00,BKN,,0.01,54.0,WeatherDisplay:10.37,2013-05-13 04:45:00,
2013-05-13 06:50:00,53.0,48.3,29.84,NNW,344,4.9,8.1,84,0.00,BKN,,0.01,47.0,WeatherDisplay:10.37,2013-05-13 04:50:00,
2013-05-13 06:55:00,53.1,48.1,29.84,NW,308,6.7,12.0,83,0.00,BKN,,0.01,47.0,WeatherDisplay:10.37,2013-05-13 04:55:00,
2013-05-13 07:00:00,53.1,48.1,29.84,NW,314,4.9,11.5,83,0.00,BKN,,0.01,54.0,WeatherDisplay:10.37,2013-05-13 05:00:00,
2013-05-13 07:05:00,53.1,48.1,29.84,NNW,336,5.5,12.7,83,0.00,BKN,,0.01,62.0,WeatherDisplay:10.37,2013-05-13 05:05:00,
2013-05-13 07:10:00,53.2,47.8,29.84,NW,324,4.3,10.4,82,0.00,BKN,,0.01,60.0,WeatherDisplay:10.37,2013-05-13 05:10:00,
2013-05-13 07:15:00,53.2,47.8,29.84,NNW,336,6.2,9.2,82,0.00,BKN,,0.01,69.0,WeatherDisplay:10.37,2013-05-13 05:15:00,
2013-05-13 07:20:00,53.3,47.9,29.85,WNW,302,3.7,12.7,82,0.00,BKN,,0.01,81.0,WeatherDisplay:10.37,2013-05-13 05:20:00,
2013-05-13 07:25:00,53.3,47.9,29.85,NW,319,2.7,13.0,82,0.00,BKN,,0.01,111.0,WeatherDisplay:10.37,2013-05-13 05:25:00,
2013-05-13 07:30:00,53.4,48.0,29.85,NNW,340,6.0,13.0,82,0.00,BKN,,0.01,134.0,WeatherDisplay:10.37,2013-05-13 05:30:00,
2013-05-13 07:35:00,53.4,48.0,29.85,NNW,336,5.1,9.2,82,0.00,BKN,,0.01,132.0,WeatherDisplay:10.37,2013-05-13 05:35:00,
2013-05-13 07:40:00,53.6,47.9,29.85,NNW,336,5.5,12.0,81,0.00,BKN,,0.01,134.0,WeatherDisplay:10.37,2013-05-13 05:40:00,
2013-05-13 07:45:00,53.7,48.0,29.85,NNW,334,8.2,13.0,81,0.00,BKN,,0.01,139.0,WeatherDisplay:10.37,2013-05-13 05:45:00,
2013-05-13 07:50:00,53.7,48.0,29.85,NW,320,6.6,15.0,81,0.00,BKN,,0.01,137.0,WeatherDisplay:10.37,2013-05-13 05:50:00,
2013-05-13 07:55:00,53.8,47.8,29.85,NNW,337,7.6,12.0,80,0.00,BKN,,0.01,135.0,WeatherDisplay:10.37,2013-05-13 05:55:00,
2013-05-13 08:00:00,53.8,47.8,29.85,NW,325,3.8,16.1,80,0.00,BKN,,0.01,128.0,WeatherDisplay:10.37,2013-05-13 06:00:00,
2013-05-13 08:05:00,53.9,47.9,29.85,NW,317,5.4,13.8,80,0.00,BKN,,0.01,134.0,WeatherDisplay:10.37,2013-05-13 06:05:00,
2013-05-13 08:10:00,54.0,48.0,29.85,NNW,327,2.7,9.2,80,0.00,BKN,,0.01,128.0,WeatherDisplay:10.37,2013-05-13 06:10:00,
2013-05-13 08:15:00,54.1,47.7,29.86,WNW,295,5.2,11.5,79,0.00,BKN,,0.01,125.0,WeatherDisplay:10.37,2013-05-13 06:15:00,
2013-05-13 08:20:00,54.1,47.7,29.86,West,263,6.4,15.0,79,0.00,BKN,,0.01,125.0,WeatherDisplay:10.37,2013-05-13 06:20:00,
2013-05-13 08:25:00,54.1,47.7,29.86,North,355,4.9,12.7,79,0.00,BKN,,0.01,132.0,WeatherDisplay:10.37,2013-05-13 06:25:00,
2013-05-13 08:30:00,54.1,47.7,29.86,NNW,329,4.4,9.2,79,0.00,BKN,,0.01,137.0,WeatherDisplay:10.37,2013-05-13 06:30:00,
2013-05-13 08:35:00,54.2,48.2,29.86,North,355,0.6,8.1,80,0.00,BKN,,0.01,141.0,WeatherDisplay:10.37,2013-05-13 06:35:00,
2013-05-13 08:40:00,54.3,47.9,29.86,NW,317,5.4,11.5,79,0.00,BKN,,0.01,141.0,WeatherDisplay:10.37,2013-05-13 06:40:00,
2013-05-13 08:45:00,54.4,48.0,29.87,NNW,337,7.8,12.0,79,0.00,BKN,,0.01,146.0,WeatherDisplay:10.37,2013-05-13 06:45:00,
2013-05-13 08:50:00,54.5,48.1,29.87,West,259,3.3,10.4,79,0.00,BKN,,0.01,148.0,WeatherDisplay:10.37,2013-05-13 06:50:00,
2013-05-13 08:55:00,54.5,48.1,29.87,NW,324,2.6,8.1,79,0.00,BKN,,0.01,185.0,WeatherDisplay:10.37,2013-05-13 06:55:00,
2013-05-13 09:00:00,54.7,48.0,29.87,NW,309,4.8,10.4,78,0.00,BKN,,0.01,216.0,WeatherDisplay:10.37,2013-05-13 07:00:00,
2013-05-13 09:05:00,54.9,48.2,29.87,NNW,327,4.7,11.5,78,0.00,BKN,,0.01,234.0,WeatherDisplay:10.37,2013-05-13 07:05:00,
2013-05-13 09:10:00,55.1,48.0,29.87,West,281,7.6,10.4,77,0.00,BKN,,0.01,232.0,WeatherDisplay:10.37,2013-05-13 07:10:00,
2013-05-13 09:15:00,55.2,48.1,29.87,NNE,13,3.5,10.4,77,0.00,BKN,,0.01,176.0,WeatherDisplay:10.37,2013-05-13 07:15:00,
2013-05-13 09:20:00,55.3,47.9,29.87,WNW,300,7.8,11.5,76,0.00,BKN,,0.01,144.0,WeatherDisplay:10.37,2013-05-13 07:20:00,
2013-05-13 09:25:00,55.2,48.1,29.88,NW,316,6.2,11.5,77,0.00,BKN,,0.01,148.0,WeatherDisplay:10.37,2013-05-13 07:25:00,
2013-05-13 09:30:00,55.2,47.8,29.87,NW,319,3.3,11.5,76,0.00,BKN,,0.01,163.0,WeatherDisplay:10.37,2013-05-13 07:30:00,
2013-05-13 09:35:00,55.2,47.8,29.88,North,349,7.1,11.5,76,0.00,BKN,,0.01,156.0,WeatherDisplay:10.37,2013-05-13 07:35:00,
2013-05-13 09:40:00,55.3,47.9,29.88,NW,320,2.9,9.2,76,0.00,BKN,,0.01,151.0,WeatherDisplay:10.37,2013-05-13 07:40:00,
2013-05-13 09:45:00,55.3,47.9,29.88,NW,320,8.5,13.8,76,0.00,BKN,,0.01,176.0,WeatherDisplay:10.37,2013-05-13 07:45:00,
2013-05-13 09:50:00,55.3,47.9,29.88,WSW,257,4.6,9.2,76,0.00,BKN,,0.01,181.0,WeatherDisplay:10.37,2013-05-13 07:50:00,
2013-05-13 09:55:00,55.4,48.0,29.88,NNW,333,7.1,13.8,76,0.00,BKN,,0.01,183.0,WeatherDisplay:10.37,2013-05-13 07:55:00,
2013-05-13 10:00:00,55.5,48.1,29.88,NW,311,5.8,11.0,76,0.00,BKN,,0.01,200.0,WeatherDisplay:10.37,2013-05-13 08:00:00,
2013-05-13 10:05:00,55.6,48.2,29.88,NNW,338,9.1,14.0,76,0.00,BKN,,0.01,214.0,WeatherDisplay:10.37,2013-05-13 08:05:00,
2013-05-13 10:10:00,55.7,47.9,29.88,NNW,330,7.6,13.8,75,0.00,BKN,,0.01,225.0,WeatherDisplay:10.37,2013-05-13 08:10:00,
2013-05-13 10:15:00,55.8,48.0,29.88,WSW,243,4.8,10.4,75,0.00,BKN,,0.01,227.0,WeatherDisplay:10.37,2013-05-13 08:15:00,
2013-05-13 10:20:00,55.9,48.1,29.88,NW,321,6.4,15.0,75,0.00,BKN,,0.01,237.0,WeatherDisplay:10.37,2013-05-13 08:20:00,
2013-05-13 10:25:00,56.0,47.8,29.88,East,81,6.1,13.8,74,0.00,BKN,,0.01,239.0,WeatherDisplay:10.37,2013-05-13 08:25:00,
2013-05-13 10:30:00,56.0,47.8,29.88,NNW,336,3.7,9.2,74,0.00,BKN,,0.01,229.0,WeatherDisplay:10.37,2013-05-13 08:30:00,
2013-05-13 10:35:00,56.1,47.9,29.88,SW,232,5.6,11.5,74,0.00,BKN,,0.01,220.0,WeatherDisplay:10.37,2013-05-13 08:35:00,
2013-05-13 10:40:00,56.3,48.1,29.89,WNW,289,5.4,11.0,74,0.00,BKN,,0.01,218.0,WeatherDisplay:10.37,2013-05-13 08:40:00,
2013-05-13 10:45:00,56.4,48.2,29.88,NNW,338,2.7,8.1,74,0.00,BKN,,0.01,211.0,WeatherDisplay:10.37,2013-05-13 08:45:00,
2013-05-13 10:50:00,56.6,48.4,29.89,NNW,328,5.3,10.4,74,0.00,BKN,,0.01,216.0,WeatherDisplay:10.37,2013-05-13 08:50:00,
2013-05-13 10:55:00,56.7,48.1,29.89,NNW,340,4.5,15.0,73,0.00,BKN,,0.01,236.0,WeatherDisplay:10.37,2013-05-13 08:55:00,
2013-05-13 11:00:00,56.7,48.1,29.89,NNW,334,5.2,12.0,73,0.00,BKN,,0.01,255.0,WeatherDisplay:10.37,2013-05-13 09:00:00,
2013-05-13 11:05:00,56.8,48.2,29.89,NNW,333,4.6,18.4,73,0.00,BKN,,0.01,271.0,WeatherDisplay:10.37,2013-05-13 09:05:00,
2013-05-13 11:10:00,57.0,48.1,29.89,WNW,290,5.4,11.5,72,0.00,BKN,,0.01,262.0,WeatherDisplay:10.37,2013-05-13 09:10:00,
2013-05-13 11:15:00,57.2,47.9,29.89,NW,315,6.6,12.0,71,0.00,BKN,,0.01,287.0,WeatherDisplay:10.37,2013-05-13 09:15:00,
2013-05-13 11:20:00,57.3,48.3,29.89,NW,304,4.8,13.0,72,0.00,BKN,,0.01,281.0,WeatherDisplay:10.37,2013-05-13 09:20:00,
2013-05-13 11:25:00,57.5,48.2,29.89,North,360,4.2,11.5,71,0.00,BKN,,0.01,251.0,WeatherDisplay:10.37,2013-05-13 09:25:00,
2013-05-13 11:30:00,57.6,48.3,29.89,North,5,3.3,11.5,71,0.00,BKN,,0.01,230.0,WeatherDisplay:10.37,2013-05-13 09:30:00,
2013-05-13 11:35:00,57.7,48.4,29.89,NE,56,5.9,10.4,71,0.00,BKN,,0.01,329.0,WeatherDisplay:10.37,2013-05-13 09:35:00,
2013-05-13 11:40:00,57.9,48.6,29.89,West,263,6.9,14.0,71,0.00,BKN,,0.01,290.0,WeatherDisplay:10.37,2013-05-13 09:40:00,
2013-05-13 11:45:00,58.1,48.4,29.89,NNW,330,4.5,12.7,70,0.00,BKN,,0.01,311.0,WeatherDisplay:10.37,2013-05-13 09:45:00,
2013-05-13 11:50:00,58.3,48.6,29.89,North,355,4.2,12.7,70,0.00,BKN,,0.01,383.0,WeatherDisplay:10.37,2013-05-13 09:50:00,
2013-05-13 11:55:00,58.6,48.5,29.89,WNW,301,7.2,11.5,69,0.00,BKN,,0.01,362.0,WeatherDisplay:10.37,2013-05-13 09:55:00,
2013-05-13 12:00:00,58.7,48.6,29.89,North,5,4.8,10.0,69,0.00,BKN,,0.01,276.0,WeatherDisplay:10.37,2013-05-13 10:00:00,
2013-05-13 12:05:00,58.9,48.4,29.89,WNW,301,6.7,11.5,68,0.00,BKN,,0.01,348.0,WeatherDisplay:10.37,2013-05-13 10:05:00,
2013-05-13 12:10:00,58.9,48.4,29.89,North,360,7.3,13.0,68,0.00,BKN,,0.01,313.0,WeatherDisplay:10.37,2013-05-13 10:10:00,
2013-05-13 12:15:00,59.0,48.4,29.89,NW,326,2.7,11.5,68,0.00,BKN,,0.01,281.0,WeatherDisplay:10.37,2013-05-13 10:15:00,
2013-05-13 12:20:00,59.0,48.1,29.89,NNW,338,6.1,13.0,67,0.00,BKN,,0.01,279.0,WeatherDisplay:10.37,2013-05-13 10:20:00,
2013-05-13 12:26:00,59.1,48.1,29.89,NNW,337,8.0,11.5,67,0.00,BKN,,0.01,248.0,WeatherDisplay:10.37,2013-05-13 10:26:00,
2013-05-13 12:31:00,59.2,48.2,29.89,NNW,341,3.8,9.2,67,0.00,BKN,,0.01,241.0,WeatherDisplay:10.37,2013-05-13 10:31:00,
2013-05-13 12:36:00,59.2,48.2,29.89,NNW,345,4.5,11.5,67,0.00,BKN,,0.01,248.0,WeatherDisplay:10.37,2013-05-13 10:36:00,
2013-05-13 12:41:00,59.2,48.2,29.89,WNW,298,3.8,9.2,67,0.00,BKN,,0.01,294.0,WeatherDisplay:10.37,2013-05-13 10:41:00,
2013-05-13 12:46:00,59.2,48.6,29.89,NNW,336,2.1,13.0,68,0.00,BKN,,0.01,274.0,WeatherDisplay:10.37,2013-05-13 10:46:00,
2013-05-13 12:51:00,59.4,48.0,29.89,WNW,290,6.2,11.5,66,0.00,BKN,,0.01,295.0,WeatherDisplay:10.37,2013-05-13 10:51:00,
2013-05-13 12:56:00,59.3,47.9,29.89,NW,322,5.2,11.5,66,0.00,BKN,,0.01,274.0,WeatherDisplay:10.37,2013-05-13 10:56:00,
2013-05-13 13:01:00,59.4,48.0,29.90,NNW,327,4.7,12.7,66,0.00,BKN,,0.01,323.0,WeatherDisplay:10.37,2013-05-13 11:01:00,
2013-05-13 13:06:00,59.4,48.0,29.89,NNW,328,5.1,10.4,66,0.00,BKN,,0.01,350.0,WeatherDisplay:10.37,2013-05-13 11:06:00,
2013-05-13 13:11:00,59.5,47.7,29.89,WNW,298,9.3,18.0,65,0.00,BKN,,0.01,403.0,WeatherDisplay:10.37,2013-05-13 11:11:00,
2013-05-13 13:16:00,59.3,47.1,29.89,West,277,6.8,10.4,64,0.00,SCT,,0.01,434.0,WeatherDisplay:10.37,2013-05-13 11:16:00,
2013-05-13 13:21:00,59.3,47.5,29.89,WNW,294,6.2,12.7,65,0.00,SCT,,0.01,348.0,WeatherDisplay:10.37,2013-05-13 11:21:00,
2013-05-13 13:26:00,59.2,47.4,29.89,NNW,332,5.0,15.0,65,0.00,BKN,,0.01,313.0,WeatherDisplay:10.37,2013-05-13 11:26:00,
2013-05-13 13:31:00,59.2,47.4,29.89,NNW,344,4.8,16.1,65,0.00,BKN,,0.01,329.0,WeatherDisplay:10.37,2013-05-13 11:31:00,
2013-05-13 13:36:00,59.2,47.4,29.89,NNW,348,5.0,11.5,65,0.00,BKN,,0.01,396.0,WeatherDisplay:10.37,2013-05-13 11:36:00,
2013-05-13 13:41:00,59.4,48.0,29.89,NW,309,5.1,11.0,66,0.00,SCT,,0.01,446.0,WeatherDisplay:10.37,2013-05-13 11:41:00,
2013-05-13 13:46:00,59.7,47.9,29.89,West,274,4.5,11.5,65,0.00,SCT,,0.01,575.0,WeatherDisplay:10.37,2013-05-13 11:46:00,
2013-05-13 13:51:00,60.1,47.9,29.89,NW,325,5.4,16.1,64,0.00,SCT,,0.01,515.0,WeatherDisplay:10.37,2013-05-13 11:51:00,
2013-05-13 13:56:00,60.1,47.5,29.89,NNW,343,7.6,18.4,63,0.00,SCT,,0.01,501.0,WeatherDisplay:10.37,2013-05-13 11:56:00,
2013-05-13 14:01:00,60.0,47.4,29.89,NW,315,7.9,12.7,63,0.00,SCT,,0.01,429.0,WeatherDisplay:10.37,2013-05-13 12:01:00,
2013-05-13 14:06:00,59.9,47.7,29.89,NNW,328,4.2,12.0,64,0.00,SCT,,0.01,401.0,WeatherDisplay:10.37,2013-05-13 12:06:00,
2013-05-13 14:11:00,60.2,48.0,29.89,NNW,329,6.0,11.5,64,0.00,SCT,,0.01,355.0,WeatherDisplay:10.37,2013-05-13 12:11:00,
2013-05-13 14:16:00,60.3,47.6,29.89,NNW,348,4.6,10.4,63,0.00,SCT,,0.01,394.0,WeatherDisplay:10.37,2013-05-13 12:16:00,
2013-05-13 14:21:00,60.4,47.7,29.89,North,5,4.2,8.0,63,0.00,SCT,,0.01,508.0,WeatherDisplay:10.37,2013-05-13 12:21:00,
2013-05-13 14:26:00,60.8,47.7,29.89,NNW,344,6.1,12.7,62,0.00,SCT,,0.01,564.0,WeatherDisplay:10.37,2013-05-13 12:26:00,
2013-05-13 14:31:00,61.0,47.0,29.89,NW,312,9.9,16.0,60,0.00,FEW,,0.01,696.0,WeatherDisplay:10.37,2013-05-13 12:31:00,
2013-05-13 14:36:00,61.0,47.4,29.89,NNW,331,4.8,10.4,61,0.00,CLR,,0.01,696.0,WeatherDisplay:10.37,2013-05-13 12:36:00,
2013-05-13 14:41:00,61.5,47.5,29.89,NE,38,7.5,11.0,60,0.00,FEW,,0.01,362.0,WeatherDisplay:10.37,2013-05-13 12:41:00,
2013-05-13 14:46:00,61.3,47.3,29.89,WSW,243,3.9,10.4,60,0.00,SCT,,0.01,279.0,WeatherDisplay:10.37,2013-05-13 12:46:00,
2013-05-13 14:51:00,61.0,47.4,29.89,WNW,297,9.3,13.0,61,0.00,BKN,,0.01,272.0,WeatherDisplay:10.37,2013-05-13 12:51:00,
2013-05-13 14:56:00,60.6,47.1,29.89,NW,309,5.1,11.5,61,0.00,BKN,,0.01,221.0,WeatherDisplay:10.37,2013-05-13 12:56:00,
2013-05-13 15:01:00,60.3,47.2,29.89,NW,308,4.5,11.5,62,0.00,BKN,,0.01,232.0,WeatherDisplay:10.37,2013-05-13 13:01:00,
2013-05-13 15:06:00,60.3,47.6,29.89,WNW,296,7.1,11.0,63,0.00,BKN,,0.01,216.0,WeatherDisplay:10.37,2013-05-13 13:06:00,
2013-05-13 15:11:00,60.1,46.6,29.89,WNW,302,6.7,14.0,61,0.00,BKN,,0.01,230.0,WeatherDisplay:10.37,2013-05-13 13:11:00,
2013-05-13 15:16:00,59.9,46.8,29.90,NW,311,2.6,9.2,62,0.00,BKN,,0.01,229.0,WeatherDisplay:10.37,2013-05-13 13:16:00,
2013-05-13 15:21:00,59.8,46.3,29.89,NNE,20,4.2,10.4,61,0.00,BKN,,0.01,223.0,WeatherDisplay:10.37,2013-05-13 13:21:00,
2013-05-13 15:26:00,59.8,46.7,29.89,NW,320,6.6,11.0,62,0.00,BKN,,0.01,220.0,WeatherDisplay:10.37,2013-05-13 13:26:00,
2013-05-13 15:31:00,59.9,46.8,29.89,WNW,299,2.6,11.5,62,0.00,BKN,,0.01,248.0,WeatherDisplay:10.37,2013-05-13 13:31:00,
2013-05-13 15:36:00,59.9,46.8,29.89,WSW,250,4.5,11.5,62,0.00,BKN,,0.01,251.0,WeatherDisplay:10.37,2013-05-13 13:36:00,
2013-05-13 15:41:00,60.0,46.9,29.89,NW,316,5.4,12.7,62,0.00,BKN,,0.01,230.0,WeatherDisplay:10.37,2013-05-13 13:41:00,
2013-05-13 15:46:00,60.1,47.0,29.89,WNW,286,2.6,12.7,62,0.00,BKN,,0.01,299.0,WeatherDisplay:10.37,2013-05-13 13:46:00,
2013-05-13 15:51:00,60.3,46.8,29.89,WNW,289,5.8,12.7,61,0.00,SCT,,0.01,385.0,WeatherDisplay:10.37,2013-05-13 13:51:00,
2013-05-13 15:56:00,60.9,47.4,29.89,West,279,5.8,12.0,61,0.00,SCT,,0.01,835.0,WeatherDisplay:10.37,2013-05-13 13:56:00,
2013-05-13 16:01:00,61.5,47.0,29.89,West,281,5.8,12.0,59,0.00,FEW,,0.01,436.0,WeatherDisplay:10.37,2013-05-13 14:01:00,
2013-05-13 16:06:00,61.8,47.3,29.89,West,269,8.5,16.0,59,0.00,FEW,,0.01,427.0,WeatherDisplay:10.37,2013-05-13 14:06:00,
2013-05-13 16:11:00,61.7,47.2,29.89,North,355,4.1,13.8,59,0.00,FEW,,0.01,735.0,WeatherDisplay:10.37,2013-05-13 14:11:00,
2013-05-13 16:16:00,61.9,47.4,29.89,WNW,290,5.3,13.0,59,0.00,CLR,,0.01,673.0,WeatherDisplay:10.37,2013-05-13 14:16:00,
2013-05-13 16:21:00,62.4,47.0,29.89,WNW,288,6.3,12.7,57,0.00,CLR,,0.01,596.0,WeatherDisplay:10.37,2013-05-13 14:21:00,
2013-05-13 16:27:00,62.4,47.0,29.89,NW,325,7.7,11.5,57,0.00,CLR,,0.01,397.0,WeatherDisplay:10.37,2013-05-13 14:27:00,
2013-05-13 16:32:00,61.7,46.3,29.89,NNW,335,5.8,13.8,57,0.00,CLR,,0.01,258.0,WeatherDisplay:10.37,2013-05-13 14:32:00,
2013-05-13 16:37:00,61.1,47.1,29.89,West,281,7.2,15.0,60,0.00,SCT,,0.01,206.0,WeatherDisplay:10.37,2013-05-13 14:37:00,
2013-05-13 16:42:00,60.8,46.4,29.89,West,275,5.3,11.0,59,0.00,SCT,,0.01,230.0,WeatherDisplay:10.37,2013-05-13 14:42:00,
2013-05-13 16:47:00,60.4,46.0,29.89,NW,313,8.0,14.0,59,0.00,SCT,,0.01,211.0,WeatherDisplay:10.37,2013-05-13 14:47:00,
2013-05-13 16:52:00,60.3,46.4,29.89,NW,313,8.4,15.0,60,0.00,SCT,,0.01,316.0,WeatherDisplay:10.37,2013-05-13 14:52:00,
2013-05-13 16:57:00,60.5,46.5,29.89,West,266,4.1,11.5,60,0.00,SCT,,0.01,244.0,WeatherDisplay:10.37,2013-05-13 14:57:00,
2013-05-13 17:02:00,60.6,46.2,29.89,NNW,331,6.2,13.8,59,0.00,SCT,,0.01,265.0,WeatherDisplay:10.37,2013-05-13 15:02:00,
2013-05-13 17:07:00,60.7,46.7,29.89,NW,304,2.5,11.5,60,0.00,SCT,,0.01,279.0,WeatherDisplay:10.37,2013-05-13 15:07:00,
2013-05-13 17:12:00,60.7,46.3,29.89,NNE,26,4.6,10.0,59,0.00,FEW,,0.01,311.0,WeatherDisplay:10.37,2013-05-13 15:12:00,
2013-05-13 17:17:00,60.8,46.4,29.89,North,5,6.0,11.5,59,0.00,FEW,,0.01,214.0,WeatherDisplay:10.37,2013-05-13 15:17:00,
2013-05-13 17:22:00,60.6,46.2,29.89,North,355,4.0,12.0,59,0.00,SCT,,0.01,176.0,WeatherDisplay:10.37,2013-05-13 15:22:00,
2013-05-13 17:27:00,60.4,46.4,29.89,West,265,4.8,7.0,60,0.00,SCT,,0.01,186.0,WeatherDisplay:10.37,2013-05-13 15:27:00,
2013-05-13 17:32:00,60.4,46.4,29.89,NNW,342,4.8,8.1,60,0.00,SCT,,0.01,207.0,WeatherDisplay:10.37,2013-05-13 15:32:00,
2013-05-13 17:37:00,60.3,46.8,29.89,WNW,290,5.2,9.0,61,0.00,SCT,,0.01,253.0,WeatherDisplay:10.37,2013-05-13 15:37:00,
2013-05-13 17:42:00,60.5,46.5,29.89,WNW,289,4.5,9.2,60,0.00,CLR,,0.01,323.0,WeatherDisplay:10.37,2013-05-13 15:42:00,
2013-05-13 17:47:00,60.7,47.2,29.89,WNW,303,6.3,13.0,61,0.00,CLR,,0.01,213.0,WeatherDisplay:10.37,2013-05-13 15:47:00,
2013-05-13 17:52:00,60.7,46.7,29.89,WNW,288,3.7,12.0,60,0.00,CLR,,0.01,279.0,WeatherDisplay:10.37,2013-05-13 15:52:00,
2013-05-13 17:57:00,60.6,45.7,29.89,North,355,7.5,13.8,58,0.00,CLR,,0.01,230.0,WeatherDisplay:10.37,2013-05-13 15:57:00,
2013-05-13 18:02:00,60.5,45.6,29.89,North,355,6.4,13.8,58,0.00,CLR,,0.01,206.0,WeatherDisplay:10.37,2013-05-13 16:02:00,
2013-05-13 18:07:00,60.4,45.5,29.89,WNW,291,6.6,10.0,58,0.00,CLR,,0.01,371.0,WeatherDisplay:10.37,2013-05-13 16:07:00,
2013-05-13 18:12:00,60.7,45.8,29.89,WNW,299,8.0,14.0,58,0.00,CLR,,0.01,352.0,WeatherDisplay:10.37,2013-05-13 16:12:00,
2013-05-13 18:17:00,60.9,45.6,29.89,North,355,4.1,8.1,57,0.00,CLR,,0.01,165.0,WeatherDisplay:10.37,2013-05-13 16:17:00,
2013-05-13 18:22:00,60.8,45.5,29.90,NW,312,5.0,12.0,57,0.00,CLR,,0.01,271.0,WeatherDisplay:10.37,2013-05-13 16:22:00,
2013-05-13 18:27:00,60.6,45.3,29.89,NNW,343,4.0,11.5,57,0.00,CLR,,0.01,155.0,WeatherDisplay:10.37,2013-05-13 16:27:00,
2013-05-13 18:32:00,60.3,45.5,29.89,NW,315,3.5,10.4,58,0.00,CLR,,0.01,204.0,WeatherDisplay:10.37,2013-05-13 16:32:00,
2013-05-13 18:37:00,60.1,45.3,29.89,NW,313,4.0,9.2,58,0.00,CLR,,0.01,116.0,WeatherDisplay:10.37,2013-05-13 16:37:00,
2013-05-13 18:42:00,59.9,45.1,29.89,NW,320,5.7,9.0,58,0.00,FEW,,0.01,104.0,WeatherDisplay:10.37,2013-05-13 16:42:00,
2013-05-13 18:47:00,59.7,45.3,29.89,North,351,2.8,8.1,59,0.00,SCT,,0.01,88.0,WeatherDisplay:10.37,2013-05-13 16:47:00,
2013-05-13 18:52:00,59.5,44.7,29.89,WNW,302,2.9,7.0,58,0.00,SCT,,0.01,67.0,WeatherDisplay:10.37,2013-05-13 16:52:00,
2013-05-13 18:57:00,59.4,45.1,29.90,NW,323,3.9,7.0,59,0.00,SCT,,0.01,51.0,WeatherDisplay:10.37,2013-05-13 16:57:00,
2013-05-13 19:02:00,59.2,44.9,29.90,NNW,329,3.3,6.9,59,0.00,BKN,,0.01,42.0,WeatherDisplay:10.37,2013-05-13 17:02:00,
2013-05-13 19:07:00,59.1,44.8,29.90,NW,305,3.4,7.0,59,0.00,BKN,,0.01,39.0,WeatherDisplay:10.37,2013-05-13 17:07:00,
2013-05-13 19:12:00,58.9,44.6,29.90,NW,315,3.5,8.0,59,0.00,BKN,,0.01,35.0,WeatherDisplay:10.37,2013-05-13 17:12:00,
2013-05-13 19:17:00,58.8,44.5,29.90,NW,310,5.0,7.0,59,0.00,BKN,,0.01,33.0,WeatherDisplay:10.37,2013-05-13 17:17:00,
2013-05-13 19:22:00,58.6,44.8,29.90,NW,315,1.3,3.5,60,0.00,BKN,,0.01,69.0,WeatherDisplay:10.37,2013-05-13 17:22:00,
2013-05-13 19:27:00,58.5,44.7,29.90,West,273,4.6,11.0,60,0.00,BKN,,0.01,63.0,WeatherDisplay:10.37,2013-05-13 17:27:00,
2013-05-13 19:32:00,58.5,44.7,29.90,West,279,4.5,7.0,60,0.00,BKN,,0.01,46.0,WeatherDisplay:10.37,2013-05-13 17:32:00,
2013-05-13 19:37:00,58.5,44.7,29.90,NW,321,2.5,7.0,60,0.00,BKN,,0.01,46.0,WeatherDisplay:10.37,2013-05-13 17:37:00,
2013-05-13 19:42:00,58.6,44.3,29.90,West,275,1.1,5.8,59,0.00,BKN,,0.01,39.0,WeatherDisplay:10.37,2013-05-13 17:42:00,
2013-05-13 19:47:00,58.6,44.3,29.90,NNW,331,6.3,9.0,59,0.00,BKN,,0.01,28.0,WeatherDisplay:10.37,2013-05-13 17:47:00,
2013-05-13 19:52:00,58.6,44.3,29.90,North,351,3.0,9.0,59,0.00,BKN,,0.01,21.0,WeatherDisplay:10.37,2013-05-13 17:52:00,
2013-05-13 19:57:00,58.6,44.3,29.90,WNW,298,3.6,11.0,59,0.00,BKN,,0.01,14.0,WeatherDisplay:10.37,2013-05-13 17:57:00,
2013-05-13 20:02:00,58.5,43.8,29.90,NNW,335,4.9,8.0,58,0.00,BKN,,0.01,12.0,WeatherDisplay:10.37,2013-05-13 18:02:00,
2013-05-13 20:07:00,58.3,43.6,29.90,NNW,333,5.3,10.4,58,0.00,BKN,,0.01,5.0,WeatherDisplay:10.37,2013-05-13 18:07:00,
2013-05-13 20:12:00,58.2,43.5,29.90,North,355,3.9,9.2,58,0.00,BKN,,0.01,5.0,WeatherDisplay:10.37,2013-05-13 18:12:00,
2013-05-13 20:17:00,58.1,43.8,29.90,WNW,302,1.8,8.1,59,0.00,BKN,,0.01,0.0,WeatherDisplay:10.37,2013-05-13 18:17:00,
2013-05-13 20:22:00,57.9,43.7,29.90,NW,324,1.0,4.0,59,0.00,BKN,,0.01,0.0,WeatherDisplay:10.37,2013-05-13 18:22:00,
2013-05-13 20:27:00,57.8,44.0,29.90,NNW,330,1.0,2.3,60,0.00,BKN,,0.01,0.0,WeatherDisplay:10.37,2013-05-13 18:27:00,
2013-05-13 20:32:00,57.7,43.9,29.91,NW,313,0.2,4.6,60,0.00,BKN,,0.01,0.0,WeatherDisplay:10.37,2013-05-13 18:32:00,
2013-05-13 20:37:00,57.5,44.1,29.90,NW,318,2.4,6.0,61,0.00,BKN,,0.01,0.0,WeatherDisplay:10.37,2013-05-13 18:37:00,
2013-05-13 20:42:00,57.3,44.0,29.91,NW,325,1.4,4.0,61,0.00,BKN,,0.01,0.0,WeatherDisplay:10.37,2013-05-13 18:42:00,
2013-05-13 20:47:00,57.1,43.8,29.91,NW,316,0.4,2.0,61,0.00,BKN,,0.01,0.0,WeatherDisplay:10.37,2013-05-13 18:47:00,
2013-05-13 20:52:00,56.9,43.6,29.91,NNW,336,1.4,3.5,61,0.00,BKN,,0.01,0.0,WeatherDisplay:10.37,2013-05-13 18:52:00,
2013-05-13 20:57:00,56.7,43.4,29.91,NNW,338,0.9,2.3,61,0.00,BKN,,0.01,0.0,WeatherDisplay:10.37,2013-05-13 18:57:00,
2013-05-13 21:02:00,56.5,43.2,29.91,NW,321,0.8,3.0,61,0.00,BKN,,0.01,0.0,WeatherDisplay:10.37,2013-05-13 19:02:00,
2013-05-13 21:07:00,56.3,43.4,29.91,NW,321,0.2,2.3,62,0.00,BKN,,0.01,0.0,WeatherDisplay:10.37,2013-05-13 19:07:00,
2013-05-13 21:12:00,56.1,43.3,29.91,NW,321,0.2,2.3,62,0.00,BKN,,0.01,0.0,WeatherDisplay:10.37,2013-05-13 19:12:00,
2013-05-13 21:17:00,55.9,43.1,29.91,NW,321,0.3,2.3,62,0.00,BKN,,0.01,0.0,WeatherDisplay:10.37,2013-05-13 19:17:00,
2013-05-13 21:22:00,55.6,43.2,29.91,NW,321,0.0,2.3,63,0.00,BKN,,0.01,0.0,WeatherDisplay:10.37,2013-05-13 19:22:00,
2013-05-13 21:27:00,55.3,42.9,29.91,NW,321,0.5,2.3,63,0.00,BKN,,0.01,0.0,WeatherDisplay:10.37,2013-05-13 19:27:00,
2013-05-13 21:32:00,55.0,42.2,29.91,NW,321,0.1,2.0,62,0.00,BKN,,0.01,0.0,WeatherDisplay:10.37,2013-05-13 19:32:00,
2013-05-13 21:37:00,54.7,42.3,29.91,NW,321,0.0,1.2,63,0.00,BKN,,0.01,0.0,WeatherDisplay:10.37,2013-05-13 19:37:00,
2013-05-13 21:42:00,54.4,42.1,29.91,NW,321,0.0,1.2,63,0.00,BKN,,0.01,0.0,WeatherDisplay:10.37,2013-05-13 19:42:00,
2013-05-13 21:47:00,54.2,42.3,29.91,NW,321,0.5,2.3,64,0.00,BKN,,0.01,0.0,WeatherDisplay:10.37,2013-05-13 19:47:00,
2013-05-13 21:52:00,53.9,42.0,29.92,NW,321,0.8,3.0,64,0.00,BKN,,0.01,0.0,WeatherDisplay:10.37,2013-05-13 19:52:00,
2013-05-13 21:57:00,53.7,42.2,29.91,NW,321,0.1,1.2,65,0.00,BKN,,0.01,0.0,WeatherDisplay:10.37,2013-05-13 19:57:00,
2013-05-13 22:02:00,53.5,42.0,29.92,NW,321,0.1,1.2,65,0.00,BKN,,0.01,0.0,WeatherDisplay:10.37,2013-05-13 20:02:00,
2013-05-13 22:07:00,53.3,41.8,29.92,NW,321,0.0,0.0,65,0.00,BKN,,0.01,0.0,WeatherDisplay:10.37,2013-05-13 20:07:00,
2013-05-13 22:12:00,53.1,42.4,29.92,NW,321,0.0,0.0,67,0.00,BKN,,0.01,0.0,WeatherDisplay:10.37,2013-05-13 20:12:00,
2013-05-13 22:17:00,52.9,42.2,29.92,NW,321,0.0,1.2,67,0.00,BKN,,0.01,0.0,WeatherDisplay:10.37,2013-05-13 20:17:00,
2013-05-13 22:22:00,52.7,42.0,29.92,NW,321,0.1,2.3,67,0.00,BKN,,0.01,0.0,WeatherDisplay:10.37,2013-05-13 20:22:00,
2013-05-13 22:27:00,52.4,42.1,29.92,NW,321,0.0,1.2,68,0.00,BKN,,0.01,0.0,WeatherDisplay:10.37,2013-05-13 20:27:00,
2013-05-13 22:32:00,52.2,42.0,29.91,NW,321,0.0,0.0,68,0.00,BKN,,0.01,0.0,WeatherDisplay:10.37,2013-05-13 20:32:00,
2013-05-13 22:37:00,52.0,42.1,29.91,NW,321,0.0,0.0,69,0.00,BKN,,0.01,0.0,WeatherDisplay:10.37,2013-05-13 20:37:00,
2013-05-13 22:42:00,51.8,41.9,29.91,NW,321,0.0,0.0,69,0.00,BKN,,0.01,0.0,WeatherDisplay:10.37,2013-05-13 20:42:00,
2013-05-13 22:47:00,51.6,42.1,29.91,NW,321,0.0,0.0,70,0.00,BKN,,0.01,0.0,WeatherDisplay:10.37,2013-05-13 20:47:00,
2013-05-13 22:52:00,51.3,41.8,29.92,NW,321,0.0,0.0,70,0.00,BKN,,0.01,0.0,WeatherDisplay:10.37,2013-05-13 20:52:00,
2013-05-13 22:57:00,51.0,41.9,29.92,NW,321,0.0,0.0,71,0.00,BKN,,0.01,0.0,WeatherDisplay:10.37,2013-05-13 20:57:00,
2013-05-13 23:02:00,50.7,42.0,29.92,NW,321,0.0,0.0,72,0.00,BKN,,0.01,0.0,WeatherDisplay:10.37,2013-05-13 21:02:00,
2013-05-13 23:07:00,50.3,42.0,29.92,NW,321,0.0,0.0,73,0.00,BKN,,0.01,0.0,WeatherDisplay:10.37,2013-05-13 21:07:00,
2013-05-13 23:12:00,50.0,41.7,29.92,NW,321,0.0,0.0,73,0.00,BKN,,0.01,0.0,WeatherDisplay:10.37,2013-05-13 21:12:00,
2013-05-13 23:17:00,49.7,41.7,29.92,NW,321,0.0,0.0,74,0.00,BKN,,0.01,0.0,WeatherDisplay:10.37,2013-05-13 21:17:00,
2013-05-13 23:22:00,49.4,41.8,29.92,NW,321,0.0,0.0,75,0.00,BKN,,0.01,0.0,WeatherDisplay:10.37,2013-05-13 21:22:00,
2013-05-13 23:27:00,49.1,41.5,29.92,NW,321,0.0,0.0,75,0.00,BKN,,0.01,0.0,WeatherDisplay:10.37,2013-05-13 21:27:00,
2013-05-13 23:32:00,48.8,41.6,29.92,NW,321,0.0,0.0,76,0.00,BKN,,0.01,0.0,WeatherDisplay:10.37,2013-05-13 21:32:00,
2013-05-13 23:38:00,48.6,41.4,29.92,NW,321,0.0,0.0,76,0.00,BKN,,0.01,0.0,WeatherDisplay:10.37,2013-05-13 21:38:00,
2013-05-13 23:43:00,48.3,41.4,29.91,NW,321,0.0,0.0,77,0.00,BKN,,0.01,0.0,WeatherDisplay:10.37,2013-05-13 21:43:00,
2013-05-13 23:48:00,48.1,41.6,29.91,NW,321,0.0,0.0,78,0.00,BKN,,0.01,0.0,WeatherDisplay:10.37,2013-05-13 21:48:00,
2013-05-13 23:53:00,47.9,41.4,29.91,NW,321,0.0,0.0,78,0.00,BKN,,0.01,0.0,WeatherDisplay:10.37,2013-05-13 21:53:00,
2013-05-13 23:58:00,47.7,41.2,29.91,NW,321,0.0,0.0,78,0.00,BKN,,0.01,0.0,WeatherDisplay:10.37,2013-05-13 21:58:00,